| time (UTC) | temp F | wind direction | speed MPH | gust MPH | rain 1hr in | rain 24hr in | rain mn in | humidity % | barometer mb |
| 20260504220016 | 56 | 0.0 | 0.0 | 0.00 | 0.00 | 0.00 | 78 | 1016.2 | |
| 20260504215036 | 57 | 0 | 1.0 | 2.0 | 0.00 | 0.00 | 0.00 | 77 | 1016.3 |
| 20260504214016 | 57 | 338 | 2.0 | 4.0 | 0.00 | 0.00 | 0.00 | 78 | 1016.3 |
| 20260504213036 | 57 | 338 | 1.0 | 2.0 | 0.00 | 0.00 | 0.00 | 79 | 1016.3 |
| 20260504212016 | 57 | 338 | 2.0 | 3.0 | 0.00 | 0.00 | 0.00 | 79 | 1016.3 |
| 20260504211016 | 57 | 338 | 2.0 | 4.0 | 0.00 | 0.00 | 0.00 | 80 | 1016.4 |
| 20260504210016 | 57 | 23 | 1.0 | 2.0 | 0.00 | 0.00 | 0.00 | 80 | 1016.5 |
| 20260504205016 | 57 | 338 | 1.0 | 3.0 | 0.00 | 0.00 | 0.00 | 80 | 1016.5 |
| 20260504204016 | 57 | 23 | 1.0 | 2.0 | 0.00 | 0.00 | 0.00 | 81 | 1016.5 |
| 20260504203036 | 57 | 23 | 1.0 | 3.0 | 0.00 | 0.00 | 0.00 | 81 | 1016.6 |
| 20260504202016 | 57 | 0 | 1.0 | 3.0 | 0.00 | 0.00 | 0.00 | 81 | 1016.7 |
| 20260504201016 | 57 | 0.0 | 0.0 | 0.00 | 0.00 | 0.00 | 81 | 1016.7 | |
| 20260504200016 | 57 | 0.0 | 0.0 | 0.00 | 0.00 | 0.00 | 81 | 1016.7 | |
| 20260504195016 | 58 | 0.0 | 0.0 | 0.00 | 0.00 | 0.00 | 81 | 1016.6 | |
| 20260504194016 | 58 | 0.0 | 0.0 | 0.00 | 0.00 | 0.00 | 80 | 1016.6 | |
| 20260504193017 | 59 | 0.0 | 0.0 | 0.00 | 0.00 | 0.00 | 79 | 1016.6 | |
| 20260504192016 | 58 | 0.0 | 0.0 | 0.00 | 0.00 | 0.00 | 74 | 1016.5 | |
| 20260504191036 | 59 | 0.0 | 0.0 | 0.00 | 0.00 | 0.00 | 69 | 1016.4 | |
| 20260504190039 | 60 | 0.0 | 0.0 | 0.00 | 0.00 | 0.00 | 68 | 1016.3 | |
| 20260504185016 | 60 | 0.0 | 1.0 | 0.00 | 0.00 | 0.00 | 65 | 1016.3 | |
| 20260504184036 | 61 | 0.0 | 1.0 | 0.00 | 0.00 | 0.00 | 66 | 1016.2 | |
| 20260504183016 | 61 | 0.0 | 1.0 | 0.00 | 0.00 | 0.00 | 67 | 1016.1 | |
| 20260504182016 | 61 | 0.0 | 2.0 | 0.00 | 0.00 | 0.00 | 73 | 1016.0 | |
| 20260504181016 | 62 | 0.0 | 1.0 | 0.00 | 0.00 | 0.00 | 75 | 1015.7 | |
| 20260504180016 | 63 | 0.0 | 1.0 | 0.00 | 0.00 | 0.00 | 74 | 1015.5 | |
| 20260504175016 | 63 | 203 | 3.0 | 5.0 | 0.00 | 0.00 | 0.00 | 75 | 1015.6 |
| 20260504174016 | 64 | 203 | 4.0 | 8.0 | 0.00 | 0.00 | 0.00 | 73 | 1015.5 |
| 20260504173036 | 64 | 203 | 2.0 | 6.0 | 0.00 | 0.00 | 0.00 | 62 | 1015.6 |
| 20260504172016 | 64 | 225 | 2.0 | 5.0 | 0.00 | 0.00 | 0.00 | 69 | 1015.5 |
| 20260504171016 | 64 | 225 | 3.0 | 8.0 | 0.00 | 0.00 | 0.00 | 70 | 1015.4 |
| 20260504151015 | 70 | 225 | 4.0 | 11.0 | 0.00 | 0.00 | 0.00 | 62 | 1015.5 |
| 20260504141016 | 70 | 203 | 5.0 | 12.0 | 0.00 | 0.00 | 0.00 | 53 | 1015.8 |
| 20260504081037 | 66 | 203 | 2.0 | 7.0 | 0.00 | 0.00 | 0.00 | 68 | 1018.0 |
| 20260504045016 | 53 | 45 | 1.0 | 3.0 | 0.00 | 0.00 | 0.00 | 84 | 1017.5 |
| 20260504044016 | 51 | 45 | 1.0 | 2.0 | 0.00 | 0.00 | 0.00 | 86 | 1017.4 |
| 20260504043016 | 50 | 0.0 | 0.0 | 0.00 | 0.00 | 0.00 | 88 | 1017.3 | |
| 20260504042017 | 50 | 0.0 | 1.0 | 0.00 | 0.00 | 0.00 | 88 | 1017.3 | |
| 20260504041016 | 49 | 0.0 | 0.0 | 0.00 | 0.00 | 0.00 | 88 | 1017.2 | |
| 20260504040016 | 49 | 0.0 | 2.0 | 0.00 | 0.00 | 0.00 | 87 | 1017.1 | |
| 20260504035057 | 50 | 0.0 | 1.0 | 0.00 | 0.00 | 0.00 | 88 | 1017.1 | |
| 20260504034016 | 50 | 0.0 | 0.0 | 0.00 | 0.00 | 0.00 | 88 | 1017.1 | |
| 20260504033016 | 50 | 0.0 | 0.0 | 0.00 | 0.00 | 0.00 | 88 | 1017.1 | |
| 20260504032016 | 51 | 0.0 | 1.0 | 0.00 | 0.00 | 0.00 | 88 | 1017.1 | |
| 20260504031037 | 51 | 23 | 1.0 | 3.0 | 0.00 | 0.00 | 0.00 | 88 | 1017.2 |
| 20260504030036 | 51 | 0.0 | 0.0 | 0.00 | 0.00 | 0.00 | 87 | 1017.4 | |
| 20260504025016 | 52 | 338 | 1.0 | 3.0 | 0.00 | 0.00 | 0.00 | 86 | 1017.4 |
| 20260504024016 | 52 | 0.0 | 2.0 | 0.00 | 0.00 | 0.00 | 86 | 1017.4 | |
| 20260504023016 | 51 | 0.0 | 1.0 | 0.00 | 0.00 | 0.00 | 88 | 1017.6 | |
| 20260504022016 | 51 | 0.0 | 0.0 | 0.00 | 0.00 | 0.00 | 89 | 1017.6 | |
| 20260504021016 | 51 | 338 | 1.0 | 1.0 | 0.00 | 0.00 | 0.00 | 89 | 1017.6 |
| 20260504020016 | 51 | 0.0 | 0.0 | 0.00 | 0.00 | 0.00 | 87 | 1017.5 | |
| 20260504015016 | 51 | 0.0 | 0.0 | 0.00 | 0.00 | 0.00 | 87 | 1017.6 | |
| 20260504014016 | 52 | 0.0 | 2.0 | 0.00 | 0.00 | 0.00 | 88 | 1017.5 | |
| 20260504013036 | 52 | 0.0 | 0.0 | 0.00 | 0.00 | 0.00 | 87 | 1017.5 | |
| 20260504012016 | 52 | 0.0 | 0.0 | 0.00 | 0.00 | 0.00 | 86 | 1017.4 | |
| 20260504011016 | 53 | 0.0 | 2.0 | 0.00 | 0.00 | 0.00 | 86 | 1017.3 | |
| 20260504010016 | 53 | 0.0 | 1.0 | 0.00 | 0.00 | 0.00 | 85 | 1017.3 | |
| 20260504005016 | 53 | 0.0 | 1.0 | 0.00 | 0.00 | 0.00 | 83 | 1017.2 | |
| 20260504004016 | 53 | 0.0 | 0.0 | 0.00 | 0.00 | 0.00 | 82 | 1017.3 | |
| 20260504003016 | 54 | 0.0 | 1.0 | 0.00 | 0.00 | 0.00 | 81 | 1017.2 | |
| 20260504002019 | 54 | 45 | 3.0 | 6.0 | 0.00 | 0.00 | 0.00 | 83 | 1017.1 |
| 20260504001016 | 52 | 45 | 1.0 | 4.0 | 0.00 | 0.00 | 0.00 | 83 | 1017.1 |
| 20260504000016 | 53 | 45 | 1.0 | 3.0 | 0.00 | 0.00 | 0.00 | 83 | 1017.1 |
| 20260503235016 | 53 | 0.0 | 2.0 | 0.00 | 0.00 | 0.00 | 83 | 1017.2 | |
| 20260503234016 | 54 | 0.0 | 1.0 | 0.00 | 0.00 | 0.00 | 84 | 1017.4 | |
| 20260503233056 | 55 | 0.0 | 0.0 | 0.00 | 0.00 | 0.00 | 84 | 1017.5 | |
| 20260503232036 | 54 | 338 | 1.0 | 2.0 | 0.00 | 0.00 | 0.00 | 86 | 1017.6 |
| 20260503231016 | 54 | 23 | 1.0 | 3.0 | 0.00 | 0.00 | 0.00 | 86 | 1017.6 |
| 20260503230036 | 54 | 0.0 | 0.0 | 0.00 | 0.00 | 0.00 | 87 | 1017.7 | |
| 20260503225016 | 54 | 0.0 | 0.0 | 0.00 | 0.00 | 0.00 | 87 | 1017.8 | |
| 20260503224016 | 54 | 0.0 | 0.0 | 0.00 | 0.00 | 0.00 | 86 | 1017.8 | |
| 20260503223016 | 55 | 0.0 | 0.0 | 0.00 | 0.00 | 0.00 | 86 | 1017.7 | |
| 20260503222016 | 55 | 0.0 | 0.0 | 0.00 | 0.00 | 0.00 | 86 | 1017.8 | |
| 20260503221015 | 56 | 338 | 1.0 | 2.0 | 0.00 | 0.00 | 0.00 | 86 | 1017.6 |